Location: Shenandoah County Park
(38.9356°N, 78.4524°W)
Time: 11:36:31
(UTC-04:00)

Vanguard 1 - Pass Details

Date: 31 January 2023
Orbit: 649 x 3831 km, 34.3° (Epoch: 19 March)

Event Time Altitude Azimuth Distance (km) Brightness Sun altitude
Exits shadow 05:10:24 20° 211° (SSW) 2,527 11.9 -25.6°
Maximum altitude 05:15:40 44° 149° (SSE) 2,096 11.9 -24.6°
Drops below altitude 10° 05:28:05 10° 84° (E) 5,220 14.8 -22.2°
Sets 05:33:29 0° 79° (E) 6,749 15.7 -21.1°
